Location: *
(53.9450°S, 136.6720°W)
Time: 11:48:50
(UTC+00:00)

Daily predictions for brighter satellites

Satellite Brightness Start Highest point End
(mag) Time Altitude Azimuth Time Altitude Azimuth Time Altitude Azimuth
Cosmos 2297 Rocket 4.1 12:31:16 16° S 12:34:27 25° SSE 12:39:07 10° E
Cosmos 2263 Rocket 4.5 12:35:46 14° SSW 12:36:54 14° S 12:40:00 10° SSE
SL-16 R/B 2.6 12:34:46 10° SSE 12:41:10 74° ENE 12:41:20 74° ENE
Cosmos 2369 Rocket 2.5 12:44:50 65° ESE 12:44:50 65° ESE 12:50:00 10° SE
Cosmos 2219 3.7 12:44:20 55° SSE 12:45:07 60° SE 12:50:50 10° NE
ATLAS 3B R/B 3.6 12:44:54 33° NNE 12:46:55 41° ENE 12:53:19 10° SE
IDEFIX/ARIANE 42P 4.1 12:53:48 10° NE 12:58:35 35° ESE 13:03:23 10° S
Cosmos 1607 4.4 12:58:17 50° NNE 12:59:29 58° NE 13:05:43 10° SE
Cosmos 1943 Rocket 2.6 13:01:20 51° NNE 13:02:11 56° ENE 13:07:38 10° SE
Lacrosse 4 Rocket 4.0 13:02:36 14° S 13:03:09 14° S 13:05:28 10° SE
Cosmos 2227 Rocket 3.5 13:02:36 16° SSW 13:06:42 38° SE 13:12:02 10° ENE
Cosmos 1500 Rocket 4.4 13:02:45 10° S 13:07:11 49° ESE 13:11:30 10° NNE
Lacrosse 5 3.4 13:13:49 25° NNE 13:13:49 25° NNE 13:16:09 10° NNE
Cosmos 1190 Rocket 4.1 13:10:30 54° S 13:11:39 74° ESE 13:16:55 10° NNE
CSL-04 Rocket 4.4 13:07:09 10° NE 13:12:19 52° ESE 13:17:31 10° S
Cosmos 1470 4.1 13:14:35 38° SSE 13:14:35 38° SSE 13:17:14 10° SSE
CZ-4 R/B 3.7 13:11:29 10° ENE 13:15:01 26° ESE 13:18:35 10° S
ATLAS 5 CENTAUR R/B 3.3 13:14:30 32° SSW 13:15:18 33° S 13:20:20 10° ESE
Cosmos 1953 4.3 13:18:11 22° S 13:18:11 22° S 13:19:44 10° S
Cosmos 2058 4.1 13:17:30 10° S 13:21:41 44° ESE 13:25:47 10° NE
Cosmos 407 Rocket 3.6 13:21:29 32° SSW 13:24:04 80° ESE 13:29:29 10° NNE
CZ-4C R/B 2.8 13:25:54 50° WSW 13:27:20 59° SSW 13:33:45 10° SE
NOSS 3-3 (A) 3.9 13:26:32 44° SW 13:28:55 80° NW 13:35:15 10° NE
NOSS 3-3 (C) 4.0 13:26:36 43° SW 13:29:00 81° NW 13:35:21 10° NE
Cosmos 1821 Rocket 4.3 13:31:29 47° WSW 13:31:29 47° WSW 13:37:33 10° S
Cosmos 2278 Rocket 4.0 13:32:07 17° SSW 13:32:43 18° SSW 13:36:31 10° SSE
USA 234 3.4 13:26:14 10° ESE 13:32:49 70° S 13:35:07 43° WSW
BREEZE-M DEB (TANK) 4.0 13:30:16 38° WNW 13:34:02 64° N 13:38:09 10° ENE
ERBS 3.4 13:34:57 45° SE 13:34:57 45° SE 13:37:46 10° E
CSL-04 Debris 4.5 13:31:15 10° NNE 13:36:44 69° ESE 13:42:15 10° SSW
CZ-2C R/B 2.9 13:35:34 10° NE 13:40:06 57° ESE 13:44:47 10° S
Meteor 1-11 4.2 13:37:44 10° SSW 13:43:36 89° WNW 13:49:19 10° N
Cosmos 1656 Rocket 4.3 13:39:12 14° N 13:43:55 57° ENE 13:49:30 10° SE
Cosmos 1459 Rocket 4.4 13:39:23 10° N 13:45:44 68° E 13:52:10 10° SSE
Cosmos 1626 3.0 13:43:58 10° S 13:47:44 52° ESE 13:51:27 10° NNE
Landsat 4 3.7 13:44:57 10° SSE 13:48:51 82° ENE 13:49:32 58° N
Cosmos 1733 4.3 13:51:28 34° SSW 13:51:28 34° SSW 13:53:57 10° S
Cosmos 1605 Rocket 4.0 13:49:24 37° NW 13:51:39 56° WSW 13:57:48 10° S
MOZ.5/SAFIR/RUBIN 5/SL-8 3.8 13:46:59 10° S 13:51:40 57° WSW 13:52:02 55° W
Cosmos 1934 Rocket 4.4 13:52:24 40° W 13:53:15 42° WSW 13:59:17 10° S
Cosmos 389 Rocket 3.0 13:55:07 46° S 13:55:07 46° S 13:57:47 10° S
CZ-3B DEB 3.7 13:51:18 32° WSW 13:56:12 78° NNW 14:11:12 10° ENE
Cosmos 909 Rocket 4.3 13:58:11 37° W 14:00:23 52° SW 14:06:35 10° SE
Cosmos 1271 Rocket 4.4 14:03:08 22° SSW 14:03:08 22° SSW 14:05:00 10° S
Cosmos 1842 Rocket 3.5 14:03:25 10° NNW 14:07:59 84° WSW 14:12:35 10° S
Cosmos-2242 3.4 14:08:41 42° WSW 14:08:41 42° WSW 14:12:45 10° S
Cosmos 2098 Rocket 3.8 14:07:10 35° WNW 14:08:51 48° WSW 14:14:49 10° S
Intercosmos 25 3.7 14:08:17 41° NW 14:09:27 56° WSW 14:14:57 10° S
SPOT 3 Rocket 4.3 14:05:09 10° NE 14:10:17 55° ESE 14:15:29 10° S
Cosmos 2263 4.5 14:09:02 35° W 14:10:59 48° SW 14:16:31 10° SSE
Cosmos 1624 Rocket 4.1 14:10:10 10° NNW 14:15:33 86° ENE 14:21:01 10° SSE
Cosmos 1140 Rocket 3.4 14:11:13 10° SSW 14:16:30 86° WNW 14:21:44 10° NNE
Meteor 2-17 Rocket 4.5 14:10:59 10° N 14:17:10 85° E 14:23:26 10° SSE
Cosmos 921 Rocket 3.0 14:13:24 14° NNW 14:17:16 84° WSW 14:21:44 10° SSE
Cosmos 2297 Rocket 2.3 14:13:38 10° SSW 14:19:25 79° SE 14:25:07 10° NE
Ariane Rocket 3.2 14:15:23 10° N 14:20:24 50° W 14:25:29 10° SSW
Cosmos 2100 Rocket 3.9 14:16:46 10° NNW 14:22:58 70° WSW 14:29:19 10° S
Cosmos 2263 Rocket 4.3 14:18:53 10° SSW 14:23:11 21° SSE 14:27:27 10° ESE
Cosmos 1703 3.2 14:19:27 10° SSW 14:23:31 65° W 14:27:30 10° N
SL-16 R/B 3.4 14:18:55 10° S 14:24:19 30° SW 14:26:25 25° W
Cosmos 1484 Rocket 3.3 14:23:14 10° NNE 14:27:07 62° ESE 14:30:59 10° S
Blok-ML 4.4 14:27:33 13° SSE 14:27:33 13° SSE 14:28:25 10° SE
Cosmos 2221 2.8 14:23:31 10° N 14:27:50 70° E 14:32:15 10° SSE
Cosmos 2369 Rocket 3.0 14:26:39 26° WSW 14:28:46 33° SW 14:33:59 10° SSE
Cosmos 2056 Rocket 3.4 14:23:42 10° NNW 14:28:52 83° WSW 14:34:07 10° SSE
Cosmos 2219 3.9 14:26:22 23° WSW 14:29:01 33° WNW 14:34:06 10° NNW
Cosmos 2173 Rocket 3.9 14:23:48 10° NNW 14:29:55 68° WSW 14:36:07 10° S
SJ-12 3.9 14:26:02 10° N 14:30:06 59° W 14:34:16 10° SSW
SMAP 3.0 14:25:25 10° NNE 14:30:08 80° WNW 14:34:55 10° SSW
Cosmos 1666 Rocket 3.8 14:27:17 10° S 14:31:50 74° ESE 14:36:16 10° NNE
Resurs 01 Rocket 4.4 14:31:32 10° E 14:34:14 16° SE 14:36:55 10° SSE
Cosmos 1461 3.7 14:31:46 10° NNW 14:36:24 61° NE 14:41:05 10° SE
ATLAS 3B R/B 2.7 14:32:12 18° WNW 14:37:21 69° SW 14:44:26 10° SE
Cosmos 2151 3.7 14:33:32 10° SSW 14:37:30 33° W 14:41:25 10° NNW
IDEFIX/ARIANE 42P 2.8 14:32:53 10° N 14:38:04 49° W 14:43:17 10° SSW
PAYLOAD A 4.5 14:38:04 10° NNW 14:42:30 34° W 14:46:54 10° SSW
Lacrosse 4 Rocket 3.2 14:39:31 10° SSW 14:43:18 27° SSE 14:46:59 10° E
Cosmos 676 Rocket 4.5 14:39:15 10° SW 14:44:09 39° WNW 14:49:01 10° N
Cosmos 1943 Rocket 2.7 14:42:53 20° W 14:46:12 38° SW 14:51:24 10° SSE
Cosmos 1356 3.4 14:42:47 10° SSW 14:46:24 72° WNW 14:49:57 10° N
Cosmos 1607 4.3 14:42:26 19° WNW 14:46:58 51° SSW 14:53:07 10° SE
Cosmos 2061 Rocket 4.1 14:42:15 10° NNW 14:48:25 56° WSW 14:54:43 10° S
Cosmos 1954 Rocket 4.4 14:44:16 10° SW 14:49:16 42° WNW 14:54:14 10° N
MTI 3.9 14:46:07 10° S 14:49:27 55° WSW 14:52:44 10° NNW
Cosmos 1470 4.4 14:50:01 18° WSW 14:50:01 18° WSW 14:52:34 10° SSW
CZ-4 R/B 1.7 14:45:41 10° N 14:49:50 49° W 14:54:02 10° SSW
COSMOS 2455 3.1 14:43:52 10° NNW 14:49:53 77° NE 14:55:58 10° SE
YAOGAN 1 2.5 14:45:33 10° N 14:49:55 67° WNW 14:54:21 10° SSW
Cosmos 2227 Rocket 2.3 14:45:27 10° SW 14:51:03 57° WNW 14:56:37 10° NNE
CSL-04 Rocket 4.3 14:48:08 10° NNW 14:52:53 32° W 14:57:41 10° SSW
Meteor 2-1 Rocket 4.3 14:46:57 10° NNW 14:52:56 73° WSW 14:58:58 10° S
Lacrosse 5 3.8 14:53:05 12° WNW 14:53:09 12° WNW 14:54:55 10° NW
Cosmos 1805 Rocket 3.7 14:49:21 10° SSW 14:53:39 51° W 14:57:56 10° N
MOS 1 4.3 14:48:29 10° N 14:54:13 70° WNW 15:00:02 10° SSW
Cosmos 1900 4.5 14:49:25 10° SW 14:54:27 78° SE 14:59:23 10° NE
EO 1 Del DPAF 3.3 14:51:00 10° S 14:54:54 57° WSW 14:58:45 10° NNW
Sich 1 3.0 14:50:32 10° SSW 14:54:55 71° W 14:59:17 10° N
Cosmos 1908 3.5 14:51:41 10° N 14:55:40 78° E 14:59:44 10° SSE
USA 238 DEB 3.8 14:49:08 10° WNW 14:56:20 74° SW 15:03:33 10° SE
USA 238 3.8 14:49:13 10° WNW 14:56:26 74° SW 15:03:39 10° SE
Cosmos 2082 3.8 14:50:49 10° SW 14:56:33 60° WNW 15:02:11 10° NNE
Cosmos 2058 4.0 14:54:52 10° SSW 14:58:24 25° W 15:01:54 10° NW
ATLAS 5 CENTAUR R/B 3.1 14:56:03 11° SW 15:01:20 38° SSE 15:06:14 10° E
Cosmos 44 Rocket 3.3 14:57:24 10° NW 15:02:22 85° SW 15:07:30 10° SE
Cosmos 1452 Rocket 3.6 14:58:41 10° NNW 15:04:01 87° ENE 15:09:26 10° SSE
MSX 4.1 14:58:43 10° N 15:04:18 47° W 15:09:58 10° SSW
Cosmos 1371 Rocket 4.5 15:00:05 10° WNW 15:05:05 41° SW 15:10:05 10° SSE
Cosmos 2016 Rocket 4.2 15:01:52 10° NNW 15:08:07 52° WSW 15:14:26 10° S
Cosmos 2346 Rocket 4.4 15:02:32 10° SSW 15:08:39 70° W 15:14:44 10° N
ERBS 2.6 15:08:17 16° WSW 15:11:03 61° NNW 15:14:32 10° NE
Tsikada Rocket 4.2 15:05:26 10° SSW 15:11:24 46° W 15:17:16 10° NNW
GP-B 3.1 15:07:25 10° N 15:11:55 72° W 15:16:29 10° S
Cosmos 724 4.3 15:07:24 10° NW 15:13:12 87° SW 15:19:04 10° SE
Cosmos 1470 Rocket 3.7 15:08:46 10° S 15:13:23 84° ESE 15:17:56 10° NNE
USA 234 3.4 15:09:04 10° ENE 15:15:42 82° SSE 15:22:21 10° WSW
Genesis I 4.1 15:11:59 10° NNW 15:15:50 54° NE 15:19:44 10° SE
CZ-4C R/B 3.4 15:11:06 12° WSW 15:17:03 37° S 15:22:42 10° ESE
USA 116 4.1 15:12:49 10° S 15:17:13 66° WSW 15:22:07 10° NNW
CZ-2C R/B 3.3 15:15:01 10° NW 15:18:45 24° W 15:22:34 10° SW
Cosmos 2278 Rocket 4.3 15:16:03 10° SSW 15:19:15 15° S 15:22:26 10° SE
Cosmos 1328 Rocket 4.1 15:15:05 10° N 15:19:33 66° E 15:24:03 10° SSE
Cosmos 1420 Rocket 4.2 15:15:15 10° NNW 15:20:31 81° ENE 15:25:49 10° SSE
Cosmos 1400 Rocket 4.0 15:17:14 10° S 15:21:22 48° ESE 15:25:24 10° NE
Cosmos 1626 3.6 15:20:07 10° SW 15:22:44 18° W 15:25:20 10° NW
Cosmos 1726 2.8 15:21:07 10° N 15:24:55 64° E 15:28:45 10° SSE
H-2A R/B 4.5 15:22:40 10° NE 15:26:10 35° ESE 15:29:45 10° S
Cosmos 1741 Rocket 4.4 15:21:28 10° SW 15:26:28 42° WNW 15:31:23 10° N
SJ-6B 3.5 15:23:05 10° NNE 15:26:58 58° ESE 15:30:49 10° S
Cosmos 1656 Rocket 4.3 15:22:33 10° WNW 15:27:48 38° SW 15:33:09 10° SSE
Cosmos 2228 Rocket 3.4 15:24:15 10° N 15:28:47 77° E 15:33:26 10° SSE
NOSS 3-2 (C) 4.0 15:21:32 10° NW 15:29:32 89° NE 15:36:48 10° SE
CZ-2C R/B 4.3 15:26:52 10° S 15:31:09 36° WSW 15:35:20 10° NW
Cosmos 1300 3.1 15:31:47 10° N 15:35:40 72° E 15:39:36 10° SSE
Cosmos 1315 Rocket 4.4 15:32:48 10° S 15:36:39 39° ESE 15:40:30 10° NE
METEOR-M 4.2 15:32:11 10° N 15:37:35 73° WNW 15:43:02 10° SSW
Meteor 2-2 Rocket 4.5 15:33:14 10° N 15:38:54 80° E 15:44:42 10° SSE
Cosmos 1725 Rocket 4.4 15:33:26 10° NW 15:39:31 45° WSW 15:45:39 10° S
CENTAUR R/B 3.9 15:32:08 10° NNW 15:39:37 52° NE 15:46:17 10° SE
COSMO-SKYMED 1 2.6 15:35:34 10° SSE 15:40:01 83° WSW 15:44:26 10° NNW
In-Cosmos 22 Rocket 4.3 15:34:56 10° SSW 15:40:50 76° W 15:46:43 10° N
